Location: Lane
(33.5226°N, 79.8788°W)
Time: 02:57:24
(UTC+00:00)

Tiros 1 despin weight - Pass Details

Date: 03 October 2022
Orbit: 590 x 637 km, 48.2° (Epoch: 30 November)

Event Time Altitude Azimuth Distance (km) Brightness Sun altitude
Rises 00:51:08 0° 312° (NW) 2,883 ? -23.4°
Reaches altitude 10° 00:54:31 10° 338° (NNW) 1,989 ? -24.1°
Maximum altitude 00:56:54 14° 10° (N) 1,751 ? -24.6°
Enters shadow 00:57:12 14° 14° (NNE) 1,756 ? -24.6°
Drops below altitude 10° 00:59:18 10° 41° (NE) 2,003 - -25.1°
Sets 01:02:44 0° 67° (ENE) 2,919 - -25.8°
